Location: Newark
(60.6561°N, 46.5772°E)
Time: 10:11:52
(UTC+00:00)

SR - Visible Passes

Search period start: 16 October 2019 00:00
Search period end: 26 October 2019 00:00
Orbit: 575 x 881 km, 66.7° (Epoch: 15 October)

Date Brightness Start Highest point End Pass type
(mag) Time Alt. Az. Time Alt. Az. Time Alt. Az.
16 Oct ? 00:16:11 35° NW 00:18:00 46° N 00:23:39 10° ENE visible
16 Oct ? 01:55:36 11° WNW 02:01:00 57° NNE 02:06:51 10° E visible
16 Oct ? 21:48:28 28° NE 21:48:28 28° NE 21:51:08 10° NE visible
16 Oct ? 23:27:52 49° NNW 23:28:02 50° NNW 23:33:42 10° ENE visible
17 Oct ? 01:07:16 20° NW 01:11:04 50° NNE 01:16:49 10° E visible
17 Oct ? 02:47:58 10° NW 02:53:45 86° NE 02:59:43 10° SE visible
17 Oct ? 21:00:09 17° NE 21:00:09 17° NE 21:01:23 10° NE visible
17 Oct ? 22:39:33 44° NNE 22:39:33 44° NNE 22:43:49 10° ENE visible
18 Oct ? 00:18:58 32° NW 00:21:05 47° N 00:26:46 10° ENE visible
18 Oct ? 01:58:23 11° NW 02:03:58 68° NNE 02:09:54 10° ESE visible
18 Oct ? 21:51:16 28° NE 21:51:16 28° NE 21:54:01 10° NE visible
18 Oct ? 23:30:40 46° NNW 23:31:05 47° N 23:36:45 10° ENE visible
19 Oct ? 01:10:05 19° NW 01:14:05 56° NNE 01:19:56 10° E visible
19 Oct ? 02:50:45 10° NW 02:56:33 74° SW 03:02:29 10° SE visible
19 Oct ? 21:02:59 17° NE 21:02:59 17° NE 21:04:15 10° NE visible
19 Oct ? 22:42:24 42° NNE 22:42:24 42° NNE 22:46:48 10° ENE visible
20 Oct ? 00:21:48 32° NW 00:24:08 50° NNE 00:29:54 10° E visible
20 Oct ? 02:01:13 11° NW 02:06:51 84° NE 02:12:50 10° SE visible
20 Oct ? 21:54:09 28° NE 21:54:09 28° NE 21:56:56 10° ENE visible
20 Oct ? 23:33:33 45° NNW 23:34:09 47° N 23:39:51 10° ENE visible
21 Oct ? 01:12:58 20° NW 01:17:03 67° NNE 01:22:59 10° ESE visible
21 Oct ? 02:53:34 10° NW 02:59:14 55° SW 03:05:01 10° SSE visible
21 Oct ? 21:05:55 16° NE 21:05:55 16° NE 21:07:07 10° NE visible
21 Oct ? 22:45:20 41° NNE 22:45:20 41° NNE 22:49:51 10° ENE visible
22 Oct ? 00:24:45 33° NW 00:27:10 56° NNE 00:33:01 10° E visible
22 Oct ? 02:04:10 12° NW 02:09:39 76° SW 02:15:36 10° SE visible
22 Oct ? 21:57:09 27° NE 21:57:09 27° NE 21:59:54 10° ENE visible
22 Oct ? 23:36:35 47° N 23:37:13 49° N 23:42:59 10° E visible
23 Oct ? 01:15:59 22° NW 01:19:57 82° NE 01:25:56 10° ESE visible
23 Oct ? 02:56:26 10° WNW 03:01:50 39° WSW 03:07:18 10° S visible
23 Oct ? 21:09:01 15° NE 21:09:01 15° NE 21:10:02 10° ENE visible
23 Oct ? 22:48:27 41° NE 22:48:27 41° NE 22:52:56 10° ENE visible
24 Oct ? 00:27:52 37° NW 00:30:08 66° NNE 00:36:04 10° ESE visible
24 Oct ? 02:07:17 13° NW 02:12:22 57° SW 02:18:09 10° SSE visible
24 Oct ? 22:00:23 25° NE 22:00:23 25° NE 22:02:56 10° ENE visible
24 Oct ? 23:39:48 54° N 23:40:14 55° NNE 23:46:05 10° E visible
25 Oct ? 01:19:14 25° NW 01:22:46 78° SW 01:28:42 10° SE visible
25 Oct ? 02:59:25 10° WNW 03:04:18 28° WSW 03:09:12 10° S visible
25 Oct ? 21:12:24 13° ENE 21:12:24 13° ENE 21:12:59 10° ENE visible
25 Oct ? 22:51:50 40° NE 22:51:50 40° NE 22:56:03 10° E visible
